Location: Newark
(50.0306°N, 2.3272°E)
Time: 16:08:20
(UTC+00:00)

Tiros 1 despin weight - Visible Passes

Search period start: 08 December 2019 00:00
Search period end: 18 December 2019 00:00
Orbit: 594 x 642 km, 48.2° (Epoch: 07 December)

Date Brightness Start Highest point End Pass type
(mag) Time Alt. Az. Time Alt. Az. Time Alt. Az.
08 Dec ? 05:59:19 10° SSW 06:03:16 30° SSE 06:07:10 10° E visible
09 Dec ? 04:36:23 10° S 04:38:49 15° SE 04:41:22 10° ESE visible
09 Dec ? 06:15:21 10° SW 06:19:37 43° SSE 06:23:51 10° E visible
10 Dec ? 04:53:03 18° S 04:55:01 24° SSE 04:58:37 10° E visible
10 Dec ? 06:31:39 10° WSW 06:36:04 57° SSE 06:40:25 10° E visible
11 Dec ? 05:09:29 25° SSW 05:11:20 36° SSE 05:15:25 10° E visible
11 Dec ? 06:48:05 10° WSW 06:52:34 68° S 06:56:59 10° E visible
12 Dec ? 03:48:40 15° ESE 03:48:40 15° ESE 03:49:57 10° E visible
12 Dec ? 05:25:44 29° SW 05:27:43 50° SSE 05:32:03 10° E visible
13 Dec ? 04:04:49 22° ESE 04:04:49 22° ESE 04:06:56 10° E visible
13 Dec ? 05:41:53 27° WSW 05:44:11 63° S 05:48:36 10° E visible
14 Dec ? 04:20:51 31° ESE 04:20:51 31° ESE 04:23:39 10° E visible
14 Dec ? 05:57:55 23° WSW 06:00:42 70° S 06:05:08 10° E visible
15 Dec ? 04:36:50 45° ESE 04:36:50 45° ESE 04:40:14 10° E visible
15 Dec ? 06:13:54 18° W 06:17:14 70° S 06:21:40 10° ESE visible
16 Dec ? 04:52:45 62° SE 04:52:45 62° SE 04:56:47 10° E visible
16 Dec ? 06:29:49 13° W 06:33:44 61° SSW 06:38:08 10° ESE visible
17 Dec ? 03:31:35 11° E 03:31:35 11° E 03:31:51 10° E visible
17 Dec ? 05:08:39 70° SSW 05:08:51 71° S 05:13:19 10° E visible
17 Dec ? 06:45:51 10° W 06:50:12 48° SSW 06:54:28 10° SE visible
